Погода в Янгиюле

Узбекистан     41°24′01″N   69°22′03″E
темп.,
°C
ветер,
м/с
пор.,
м/с
влажн.,
%
обл.,
%
осадки,
мм/ч
давл.,
гПа
погр.,
м
5 августа, чт
чт523:00+29ссв51119100 0.0 1005350
02:00+27св3426100 0.0 100493
05:00+26вюв232889 0.0 100486
08:00+30ююв581995 0.0 1005461
11:00+35ю4514100 0.0 10041141
14:00+38юз2212100 0.0 10022060
17:00+39сз231014 0.0 10013638
20:00+30всв472499 0.0 1002198
6 августа, пт
пт623:00+28св362850 0.0 1002154
02:00+26всв35335 0.0 100297
05:00+25всв22335 0.0 100240
08:00+29ююв34225 0.0 1004421
11:00+35юз21160 0.0 10031104
14:00+39зюз23110 0.0 10013040
17:00+39сз74102 0.0 10004005
20:00+33ссз511130 0.0 1001376
7 августа, сб
сб723:00+28ссв35204 0.0 1001119
02:00+26ссв11232 0.0 100248
05:00+25вюв34234 0.0 1003102
08:00+28ююв33200 0.0 1004366
11:00+35з22140 0.0 10041134
14:00+38зсз33100 0.0 10023383
17:00+38сз6490 0.0 10023367
20:00+32сз511150 0.0 1003422
8 августа, вс
вс823:00+28с24210 0.0 1003114
02:00+26вюв22220 0.0 100469
05:00+24юв46230 0.0 1005142
08:00+28ююв45193 0.0 1006402
11:00+34ю44159 0.0 10061039
14:00+38ююз2211100 0.0 10042828
17:00+39вюв129100 0.0 10043250
20:00+31ю71218100 0.0 1006410
9 августа, пн
пн923:00+28вюв452374 0.0 1007218
02:00+27в342338 0.0 100659
05:00+26всв22240 0.0 100743
08:00+31юв22170 0.0 1008328
11:00+36ююз32130 0.0 10071332
14:00+40зюз22100 0.0 10053030
17:00+40сз3470 0.0 10043642
20:00+34с511110 0.0 1005348